KINEIS-1A

Last updated on Sat Apr 11 2026 00:02:47 GMT+0000 (Coordinated Universal Time)

1 60084U 24114F 26100.21516874 -.00000066 00000+0 -17784-5 0 9998 2 60084 97.9491 124.6768 0003636 14.7637 345.3680 14.80477292 97334
UTC large
Height (km)
Speed (km/s)
/
Latitude / Longitude
Inclination (degrees)
Orbital Period (minutes)
Azimuth
Elevation
Range (km)
Doppler Factor

Next 0 passes for location: London (51.5072 / 0.1276)

Sorry there are no passes over London.
KINEIS-1A